When you browse on this site, cookies collect data to enhance your experience and personalize the content and advertising you see.
Visit our Privacy Policy to learn more. By continuing to use the site, you agree to this use of cookies and data.
  • In Schweiz
  • Länderverzeichnis
  • Für 7 Tage
  • Wassertemperatur
  • Satellitenkarten
  • Wetterkarte
  • Widgets
  • user-avatar
    Anmelden

    Stündliche Wetter Wlora

    Heute, 25 April, Donnerstag

    Zeit Temperatur Niederschläge Wind Luftdruck Luftfeuchtigkeit
    00:00 +17°C° 0 mm 5 m/S 765 mmHg 77%
    01:00 +18°C° 0 mm 4 m/S 765 mmHg 77%
    02:00 +18°C° 0 mm 4 m/S 765 mmHg 76%
    03:00 +18°C° 0 mm 4 m/S 765 mmHg 75%
    04:00 +18°C° 0 mm 4 m/S 765 mmHg 74%
    05:00 +19°C° 0 mm 3 m/S 765 mmHg 71%
    06:00 +21°C° 0 mm 3 m/S 765 mmHg 69%
    07:00 +23°C° 0 mm 2 m/S 765 mmHg 66%
    08:00 +24°C° 0 mm 3 m/S 765 mmHg 63%
    09:00 +25°C° 0 mm 3 m/S 765 mmHg 59%
    10:00 +26°C° 0 mm 3 m/S 765 mmHg 55%
    11:00 +26°C° 0 mm 3 m/S 765 mmHg 55%
    12:00 +26°C° 0 mm 2 m/S 765 mmHg 56%
    13:00 +26°C° 0 mm 2 m/S 765 mmHg 56%
    14:00 +26°C° 0 mm 2 m/S 765 mmHg 60%
    15:00 +25°C° 0 mm 2 m/S 765 mmHg 64%
    16:00 +24°C° 0 mm 2 m/S 765 mmHg 67%
    17:00 +23°C° 0 mm 2 m/S 765 mmHg 71%
    18:00 +21°C° 0 mm 2 m/S 765 mmHg 76%
    19:00 +21°C° 0 mm 2 m/S 764 mmHg 80%
    20:00 +20°C° 0 mm 2 m/S 765 mmHg 81%
    21:00 +20°C° 0 mm 3 m/S 765 mmHg 82%
    22:00 +20°C° 0 mm 3 m/S 765 mmHg 84%
    23:00 +20°C° 0 mm 3 m/S 765 mmHg 83%

    Morgen, 26 April, Freitag

    Zeit Temperatur Niederschläge Wind Luftdruck Luftfeuchtigkeit
    00:00 +19°C° 0 mm 2 m/S 765 mmHg 82%
    01:00 +19°C° 0 mm 2 m/S 765 mmHg 81%
    02:00 +19°C° 0 mm 2 m/S 764 mmHg 81%
    03:00 +20°C° 0 mm 1 m/S 764 mmHg 81%
    04:00 +19°C° 0 mm 1 m/S 764 mmHg 81%
    05:00 +21°C° 0 mm 1 m/S 764 mmHg 77%
    06:00 +22°C° 0 mm 1 m/S 764 mmHg 73%
    07:00 +23°C° 0 mm 1 m/S 764 mmHg 69%
    08:00 +24°C° 0 mm 1 m/S 764 mmHg 66%
    09:00 +25°C° 0 mm 2 m/S 764 mmHg 62%
    10:00 +26°C° 0 mm 2 m/S 764 mmHg 59%
    11:00 +27°C° 0 mm 2 m/S 764 mmHg 59%
    12:00 +27°C° 0 mm 3 m/S 763 mmHg 59%
    13:00 +27°C° 0 mm 3 m/S 763 mmHg 60%
    14:00 +27°C° 0 mm 3 m/S 762 mmHg 62%
    15:00 +26°C° 0 mm 3 m/S 762 mmHg 64%
    16:00 +26°C° 0 mm 3 m/S 762 mmHg 67%
    17:00 +24°C° 0 mm 2 m/S 762 mmHg 72%
    18:00 +23°C° 0 mm 2 m/S 762 mmHg 77%
    19:00 +20°C° 0 mm 2 m/S 761 mmHg 82%
    20:00 +20°C° 0 mm 2 m/S 762 mmHg 82%
    21:00 +20°C° 0 mm 2 m/S 762 mmHg 82%
    22:00 +20°C° 0 mm 3 m/S 762 mmHg 82%
    23:00 +20°C° 0 mm 3 m/S 762 mmHg 83%

    übermorgen, 27 April, Samstag

    Zeit Temperatur Niederschläge Wind Luftdruck Luftfeuchtigkeit
    00:00 +19°C° 0 mm 3 m/S 762 mmHg 83%
    01:00 +19°C° 0 mm 3 m/S 761 mmHg 83%
    02:00 +19°C° 0 mm 3 m/S 761 mmHg 83%
    03:00 +18°C° 0 mm 3 m/S 761 mmHg 82%
    04:00 +18°C° 0 mm 3 m/S 761 mmHg 81%
    05:00 +19°C° 0 mm 2 m/S 761 mmHg 79%
    06:00 +19°C° 0 mm 2 m/S 761 mmHg 77%
    07:00 +21°C° 0 mm 1 m/S 761 mmHg 75%
    08:00 +20°C° 0 mm 2 m/S 761 mmHg 75%
    09:00 +21°C° 0 mm 3 m/S 762 mmHg 76%
    10:00 +21°C° 0 mm 4 m/S 762 mmHg 76%
    11:00 +22°C° 0 mm 4 m/S 762 mmHg 73%
    12:00 +22°C° 0 mm 5 m/S 761 mmHg 70%
    13:00 +23°C° 0 mm 5 m/S 761 mmHg 67%
    14:00 +23°C° 0 mm 5 m/S 761 mmHg 66%
    15:00 +22°C° 0 mm 5 m/S 761 mmHg 65%
    16:00 +21°C° 0 mm 6 m/S 761 mmHg 65%
    17:00 +20°C° 0 mm 5 m/S 761 mmHg 74%
    18:00 +17°C° 0 mm 5 m/S 761 mmHg 83%
    19:00 +16°C° 0 mm 5 m/S 761 mmHg 92%
    20:00 +15°C° 0 mm 5 m/S 762 mmHg 93%
    21:00 +15°C° 0 mm 5 m/S 762 mmHg 94%
    22:00 +15°C° 0 mm 5 m/S 762 mmHg 95%
    23:00 +14°C° 0 mm 5 m/S 762 mmHg 93%

    28 April, Sonntag

    Zeit Temperatur Niederschläge Wind Luftdruck Luftfeuchtigkeit
    00:00 +14°C° 0 mm 4 m/S 762 mmHg 90%
    01:00 +14°C° 0 mm 4 m/S 762 mmHg 87%
    02:00 +13°C° 0 mm 4 m/S 762 mmHg 81%
    03:00 +13°C° 0 mm 4 m/S 762 mmHg 75%
    04:00 +13°C° 0 mm 4 m/S 761 mmHg 68%
    05:00 +14°C° 0 mm 4 m/S 761 mmHg 65%
    06:00 +15°C° 0 mm 4 m/S 761 mmHg 62%
    07:00 +18°C° 0 mm 3 m/S 761 mmHg 59%
    08:00 +19°C° 0 mm 3 m/S 761 mmHg 56%
    09:00 +20°C° 0 mm 4 m/S 761 mmHg 53%
    10:00 +21°C° 0 mm 4 m/S 761 mmHg 50%
    11:00 +22°C° 0 mm 4 m/S 761 mmHg 51%
    12:00 +22°C° 0 mm 4 m/S 760 mmHg 51%
    13:00 +24°C° 0 mm 3 m/S 760 mmHg 52%
    14:00 +22°C° 0 mm 3 m/S 760 mmHg 55%
    15:00 +21°C° 0 mm 3 m/S 759 mmHg 58%
    16:00 +21°C° 0 mm 2 m/S 759 mmHg 61%
    17:00 +19°C° 0 mm 3 m/S 759 mmHg 67%
    18:00 +18°C° 0 mm 3 m/S 759 mmHg 73%
    19:00 +15°C° 0 mm 4 m/S 759 mmHg 78%
    20:00 +15°C° 0 mm 4 m/S 760 mmHg 81%
    21:00 +14°C° 0 mm 4 m/S 760 mmHg 83%
    22:00 +14°C° 0 mm 4 m/S 760 mmHg 86%
    23:00 +14°C° 0 mm 4 m/S 760 mmHg 87%

    29 April, Montag

    Zeit Temperatur Niederschläge Wind Luftdruck Luftfeuchtigkeit
    00:00 +13°C° 0 mm 4 m/S 760 mmHg 89%
    01:00 +13°C° 0 mm 4 m/S 760 mmHg 91%
    02:00 +13°C° 0 mm 4 m/S 760 mmHg 92%
    03:00 +13°C° 0 mm 4 m/S 760 mmHg 93%
    04:00 +13°C° 0 mm 4 m/S 760 mmHg 95%
    05:00 +13°C° 0 mm 4 m/S 760 mmHg 93%
    06:00 +14°C° 0 mm 4 m/S 760 mmHg 92%
    07:00 +15°C° 0 mm 4 m/S 760 mmHg 90%
    08:00 +16°C° 0 mm 5 m/S 760 mmHg 82%
    09:00 +17°C° 0 mm 5 m/S 760 mmHg 74%
    10:00 +19°C° 0 mm 6 m/S 760 mmHg 66%
    11:00 +20°C° 0 mm 5 m/S 760 mmHg 63%
    12:00 +20°C° 0 mm 5 m/S 760 mmHg 59%
    13:00 +20°C° 0 mm 5 m/S 759 mmHg 56%
    14:00 +20°C° 0 mm 5 m/S 759 mmHg 61%
    15:00 +19°C° 0 mm 5 m/S 759 mmHg 65%
    16:00 +19°C° 0 mm 6 m/S 759 mmHg 70%
    17:00 +17°C° 0 mm 6 m/S 759 mmHg 77%
    18:00 +16°C° 0 mm 6 m/S 759 mmHg 83%
    19:00 +15°C° 0 mm 7 m/S 759 mmHg 90%
    20:00 +14°C° 0 mm 7 m/S 759 mmHg 91%
    21:00 +14°C° 0 mm 7 m/S 759 mmHg 93%
    22:00 +12°C° 0 mm 7 m/S 759 mmHg 94%
    23:00 +13°C° 0.4 mm 6 m/S 759 mmHg 93%

    30 April, Dienstag

    Zeit Temperatur Niederschläge Wind Luftdruck Luftfeuchtigkeit
    00:00 +13°C° 0.4 mm 5 m/S 759 mmHg 92%
    01:00 +13°C° 0.4 mm 5 m/S 759 mmHg 91%
    02:00 +13°C° 0.7 mm 4 m/S 759 mmHg 92%
    03:00 +13°C° 0.7 mm 4 m/S 759 mmHg 94%
    04:00 +13°C° 0.7 mm 4 m/S 759 mmHg 95%
    05:00 +13°C° 0.3 mm 5 m/S 759 mmHg 92%
    06:00 +13°C° 0.3 mm 5 m/S 759 mmHg 90%
    07:00 +14°C° 0.3 mm 6 m/S 759 mmHg 87%
    08:00 +14°C° 0.1 mm 6 m/S 760 mmHg 86%
    09:00 +15°C° 0.1 mm 6 m/S 760 mmHg 84%
    10:00 +15°C° 0.1 mm 7 m/S 760 mmHg 83%
    11:00 +15°C° 0.1 mm 7 m/S 760 mmHg 82%
    12:00 +16°C° 0.1 mm 7 m/S 760 mmHg 81%
    13:00 +16°C° 0.1 mm 7 m/S 760 mmHg 80%
    14:00 +16°C° 0 mm 6 m/S 759 mmHg 79%
    15:00 +16°C° 0 mm 5 m/S 759 mmHg 77%
    16:00 +16°C° 0 mm 5 m/S 759 mmHg 75%
    17:00 +15°C° 0 mm 4 m/S 759 mmHg 79%
    18:00 +14°C° 0 mm 3 m/S 759 mmHg 84%
    19:00 +14°C° 0 mm 2 m/S 759 mmHg 88%
    20:00 +13°C° 0 mm 2 m/S 760 mmHg 89%
    21:00 +13°C° 0 mm 2 m/S 760 mmHg 90%
    22:00 +13°C° 0 mm 2 m/S 760 mmHg 91%
    23:00 +13°C° 0 mm 2 m/S 760 mmHg 92%
    Mehr zeigen